sat.trackr.live / text

‹ back to catalog

STARLINK-35549

NORAD 66139 · 2025-237AB

PAYLOAD ACTIVE UNKNOWN

§ Identity

Operator
Country
US
Launch date
2025-10-22
Launch site
AFWTR
Launch vehicle
Mass (kg)
RCS (m²)

Purposes: comms

External: N2YO · Heavens-Above · Gunter

§ Orbital elements

Epoch: 2026-05-25T02:35:19.708800Z

Period
94.10 min
Inclination
53.1610°
Eccentricity
0.0000952
Mean motion
15.30211662 rev/d
Perigee alt
474.5 km
Apogee alt
475.8 km
Semi-major
6,853.3 km
B*
4.0580e-4
RAAN
44.4368°
Arg perigee
98.3179°
Mean anomaly
261.7930°
Rev number
3,431

§ Raw data

STARLINK-355491 66139U 25237AB  26145.10786700  .00011683  00000+0  40580-3 0  99992 66139  53.1610  44.4368 0000952  98.3179 261.7930 15.30211662 34311

JSON: /api/v1/satellites/66139 · /tle

For live sub-satellite position, see the globe view (requires WebGL).

§ Visibility from observer

Set your observer location to see the next 7 days of passes ≥ 10°. The values pass through the URL so the page stays shareable.

No JS? Fill the form by hand. The geolocation button needs JavaScript.